Regional Weather Roundup
Issued by NWS Columbia, SC

Current Version | Previous Version | Text Only | Print | Product List | Glossary On
Versions: 1 2 3 4 5 6 7 8 9 10 11 12 13 14 15 16 17 18 19 20 21 22 23 24 25 26 27 28 29 30 31 32 33 34 35 36 37 38 39 40 41 42 43 44 45 46 47 48 49 50
000
ASUS42 KCAE 111310
RWRCAE
REGIONAL WEATHER ROUNDUP
NATIONAL WEATHER SERVICE COLUMBIA SC
800 AM EST MON DEC 11 2017

NOTE: "FAIR" INDICATES FEW OR NO CLOUDS BELOW 12,000 FEET WITH NO
SIGNIFICANT WEATHER AND/OR OBSTRUCTIONS TO VISIBILITY.

NOT ALL STATIONS ARE QUALITY CONTROLLED BY THE NATIONAL
WEATHER SERVICE. USE DATA WITH CAUTION...ESPECIALLY
DEWPOINT OBSERVATIONS.

SCZ001>056-GAZ040-063>065-077-111400-
...UPSTATE SOUTH CAROLINA...

CITY           SKY/WX    TMP DP  RH WIND       PRES   REMARKS
ANDERSON       CLEAR     31  27  85 SW5       30.16R WCI  26
LIBERTY        SUNNY     25  24  97 CALM      30.14R
SPARTANBURG    CLEAR     30  23  74 SW3       30.14R
CLEMSON        CLEAR     32  27  81 CALM      30.16R
GREENVILLE     CLEAR     31  24  75 CALM      30.15R
GREENWOOD      CLEAR     30  27  88 CALM      30.18R
GREER          CLEAR     29  25  85 CALM      30.15R
ROCK HILL      CLEAR     28  24  85 S3        30.15R
CHESTER        SUNNY     30  27  86 SW5       30.16R WCI  25
LAURENS        SUNNY     30  27  86 SW8       30.16R WCI  23


...CENTRAL SOUTH CAROLINA...

CITY           SKY/WX    TMP DP  RH WIND       PRES   REMARKS
COLUMBIA APT   CLEAR     30  27  88 CALM      30.18R
COLUMBIA OWENS CLEAR     30  28  92 CALM      30.20R
MCENTIRE ANGB  CLEAR     28  25  86 NW3       30.18R
ORANGEBURG     CLEAR     31  28  89 SW3       30.20R
SUMTER SHAW    CLEAR     32  26  78 SW5       30.16R WCI  28
NEWBERRY       SUNNY     32  28  86 SW5       30.19S WCI  27
AIKEN          FAIR      30  28  93 W3        30.21R
BARNWELL         N/A     34  28  80 SW6       30.20S WCI  29
MANNING        FAIR      32  30  93 MISG      30.20R
CAMDEN         FAIR      27  25  93 CALM      30.18S
LANCASTER      SUNNY     28  27  93 SW3       30.17R
WINNSBORO      SUNNY     32  28  86 W3        30.16R


...EASTERN AND COASTAL SOUTH CAROLINA...

CITY           SKY/WX    TMP DP  RH WIND       PRES   REMARKS
MYRTLE BEACH   CLEAR     34  30  85 W5        30.20S WCI  30
N MYRTLE BCH   CLEAR     36  29  75 W6        30.19R WCI  31
CONWAY         FAIR      30  30 100 CALM      30.20R FOG
MARION         FAIR      30  28  93 CALM      30.20R
HARTSVILLE     FAIR      28  27  93 CALM      30.16R
FLORENCE       CLEAR     30  28  92 CALM      30.18R
DARLINGTON     PTCLDY    29  28  96 CALM      30.18S
CHARLESTON APT CLEAR     35  29  78 W6        30.21R WCI  30
MOUNT PLEASANT FAIR      37  30  75 W5        30.22R WCI  34
WALTERBORO     SUNNY     32  30  93 CALM      30.22S
BEAUFORT       CLEAR     37  31  78 SW3       30.23R


...EASTERN GEORGIA...

CITY           SKY/WX    TMP DP  RH WIND       PRES   REMARKS
AUGUSTA BUSH F CLEAR     30  27  88 CALM      30.20R
AUGUSTA DANIEL CLEAR     37  28  70 VRB3      30.19R
THOMSON        CLEAR     33  27  80 N3        30.24S
CLAXTON        FAIR      30  29  96 CALM      30.25R
SYLVANIA       SUNNY     33  31  92 W3        30.22F
STATESBORO     CLEAR     35  28  76 CALM      30.23S
SAVANNAH       CLEAR     33  29  85 W5        30.24F WCI  29


...SOUTHERN NORTH CAROLINA...

CITY           SKY/WX    TMP DP  RH WIND       PRES   REMARKS
CHARLOTTE      CLEAR     30  25  81 CALM      30.14R
MONROE         CLEAR     28  25  88 CALM      30.13R
WADESBORO      SUNNY     25  23  91 CALM      30.16R
RUTHERFORDTON  CLEAR     24  24 100 CALM      30.13R
ASHEVILLE      CLOUDY    26  19  74 N5        30.11R WCI  20

$$



USA.gov is the U.S. government's official web portal to all federal, state and local government web resources and services.